Tracking 18785 objects as of 20-August-2017
HD Live streaming from Space Station
objects crossing your sky now

COSMOS 2440

Track COSMOS 2440 now!
COSMOS 2440 is classified as:


NORAD ID: 33108
Int'l Code: 2008-033A
Perigee: 35,765.2 km
Apogee: 35,815.1 km
Inclination: 4.7 °
Period: 1,435.9 minutes
Semi major axis: 42161 km
RCS: 10.0237 m2 (large)
Launch date: June 27, 2008
Source: Commonwealth of Independent States (former USSR) (CIS)
Launch site: TYURATAM MISSILE AND SPACE COMPLEX (TTMTR)

Cosmos 2440 is a Russian military, geostationary, early warning craft.
Your satellite tracking list
Your tracking list is empty





NASA's NSSDC Master Catalog

Two Line Element Set (TLE):
1 33108U 08033A   17232.06104689 -.00000120 +00000-0 +00000-0 0  9992
2 33108 004.7487 057.0492 0005915 180.3869 187.6400 01.00284531033476
Source of the keplerian elements: AFSPC